Regional Weather Roundup
Issued by NWS Mt. Holly, NJ

Home | Current Version | Previous Version | Text Only | Print | Product List | Glossary On
Versions: 1 2 3 4 5 6 7 8 9 10 11 12 13 14 15 16 17 18 19 20 21 22 23 24 25 26 27 28 29 30 31 32 33 34 35 36 37 38 39 40 41 42 43 44 45 46 47 48 49 50
000
ASUS41 KPHI 220212
RWRPHI

REGIONAL WEATHER ROUNDUP
NATIONAL WEATHER SERVICE MOUNT HOLLY NJ
900 PM EST TUE NOV 21 2017

NOTE:  "FAIR" INDICATES FEW OR NO CLOUDS BELOW 12,000 FEET WITH NO
SIGNIFICANT WEATHER AND/OR OBSTRUCTIONS TO VISIBILITY.

 * = STATION DOES NOT REPORT PRECIPITATION (E.G. RAIN, SNOW, ETC.)
        OR FOG.

NJZ015>026-220300-
SOUTHERN NEW JERSEY

CITY           SKY/WX    TMP DP  RH WIND       PRES   REMARKS
POMONA         CLOUDY    59  50  72 SW14G23   30.07S
MILLVILLE      MOCLDY    53  44  71 SW5       30.07S
WRIGHTSTOWN    CLOUDY    49  40  72 SW8       30.02S
MOUNT HOLLY    CLOUDY    50  41  71 VRB5      30.05S
TRENTON        CLOUDY    47  38  71 CALM      30.04S

$$
NJZ001>014-220300-
NORTHERN NEW JERSEY

CITY           SKY/WX    TMP DP  RH WIND       PRES   REMARKS
SUSSEX         CLEAR     41  30  65 SW3       30.01S
ANDOVER*         N/A     34  31  88 CALM      30.02F
MORRISTOWN     PTCLDY    34  30  86 CALM      30.04F
NEWARK         CLOUDY    51  37  58 S5        30.05S
TETERBORO      CLOUDY    47  35  63 CALM      30.04S
CALDWELL       CLEAR     38  33  82 CALM      30.04F
SOMERVILLE     CLOUDY    35  32  88 CALM      30.02F
ALLAIRE*       CLOUDY    51  41  68 S7        30.06S
TOMS RIVER*    CLOUDY    50  41  71 SW6       30.06S

$$
PAZ043-044-047-054-055-060>062-066>071-220300-
EASTERN PENNSYLVANIA

CITY           SKY/WX    TMP DP  RH WIND       PRES   REMARKS
PHILADELPHIA   CLOUDY    56  38  50 SW10      30.05R
NORTH PHILA    CLOUDY    54  40  59 SW7       30.05S
BLUE BELL*     PTCLDY    50  41  71 S10       30.05R
DOYLESTOWN     CLOUDY    47  39  74 CALM      30.03R
QUAKERTOWN*    CLOUDY    37  32  81 CALM      30.03S
PERKASIE*      FAIR      46  39  76 S3        30.03S
POTTSTOWN      CLOUDY    47  38  71 S3        30.04S
LANCASTER      CLOUDY    47  40  76 CALM      30.01S
COATESVILLE    CLOUDY    50  43  76 VRB7      30.04R
READING        CLEAR     45  39  79 SW6       30.01R
ALLENTOWN      CLEAR     38  29  70 N3        30.02S
MOUNT POCONO   CLEAR     38  31  76 CALM      29.98F
HAZLETON       CLEAR     43  32  65 CALM      30.00R
LEHIGHTON      FAIR      30  28  93 CALM      30.03R
WILKES BARRE   CLEAR     44  30  57 SE3       29.99R

$$
DEZALL-MDZ008-012-015-019-020-220300-
DELAWARE AND EASTERN MARYLAND

CITY           SKY/WX    TMP DP  RH WIND       PRES   REMARKS
WILMINGTON     CLOUDY    53  40  61 S9        30.05S
DOVER          MOCLDY    52  41  66 S5        30.07R
GEORGETOWN     CLOUDY    56  48  74 S8        30.08F
EASTON         MOCLDY    57  48  72 SW7       30.11S
ABERDEEN       CLOUDY    49  43  78 SW3       30.06R
PATUXENT       CLOUDY    56  47  71 S8        30.07S
OCEAN CITY     CLOUDY    56  52  86 SW7       30.11S
WALLOPS ISLAND CLOUDY    57  54  89 S13       30.11S
CAMBRIDGE      MOCLDY    57  48  72 S10G16    30.08S
SALISBURY      CLOUDY    57  49  74 S7        30.09S

$$
PAZ001-021-NYZ056-072-MDZ011-DCZ001-220300-
OTHER NEARBY LOCATIONS

CITY           SKY/WX    TMP DP  RH WIND       PRES   REMARKS
HARRISBURG     CLOUDY    40  35  83 CALM      30.00R
STATE COLLEGE  CLEAR     46  25  42 W5        29.94F
WILLIAMSPORT   CLEAR     45  29  53 N5        29.95S
BINGHAMTON     CLEAR     44  24  45 SW12G18   29.92S
NEW YORK CITY  CLOUDY    53  39  59 VRB7      30.07S
BALTIMORE      CLOUDY    54  43  66 SW6       30.04S
WASHINGTON DC  MOCLDY    52  45  77 S12       30.06S

$$



USA.gov is the U.S. government's official web portal to all federal, state and local government web resources and services.